Preview of NWS' New Version of Forecast
This preview is not operational and should not be used for support decisions.

Regional Weather Roundup (RWR)

Issued by National Weather Service (NWS)

                            
000
ASPQ40 PGUM 220810
RWRPQ 
WEATHER ROUNDUP FOR THE MARIANAS AND MICRONESIA
NATIONAL WEATHER SERVICE TIYAN GU
600 PM CHST MON APR 22 2019

GUZ001>004-220900-
MARIANA ISLANDS-
  
CITY           SKY/WX    TMP DP  RH WIND       PRES   REMARKS
GUAM AIRPORT   PTCLDY    82  73  74 E12G23    29.88R                  
ANDERSEN AFB   PTCLDY    82  72  69 E15       29.88R                  
ROTA AIRPORT   MOCLDY    81  73  78 E16       29.87R                  
TINIAN AP      PTCLDY    84  72  65 E12       29.87R                  
SAIPAN AP      PTCLDY    84  73  70 E13       29.88R HX  91           

$$

PMZ161-220900-
REPUBLIC OF PALAU-
  
CITY           SKY/WX    TMP DP  RH WIND       PRES   REMARKS
KOROR AP       PTSUNNY   84  75  74 NE12G22   29.76R HX  92           
KOROR WSO      NOT AVBL                                               

$$

PMZ171>174-220900-
FEDERATED STATES OF MICRONESIA-
  
CITY           SKY/WX    TMP DP  RH WIND       PRES   REMARKS
YAP AIRPORT    PTSUNNY   86  77  74 E12       29.78S HX  97           
CHUUK AP       MOCLDY    84  73  70 VRB6      29.80R HX  91           
POHNPEI AP     NOT AVBL                                               
POHNPEI WSO    CLOUDY    84  75  74 E6        29.82R HX  92           
KOSRAE AP      NOT AVBL                                               

$$

PMZ181-220900-
REPUBLIC OF THE MARSHALL ISLANDS-
  
CITY           SKY/WX    TMP DP  RH WIND       PRES   REMARKS
KWAJALEIN AP   CLOUDY    82  75  78 E22       29.85R                  
MAJURO AP      MOCLDY    82  77  83 NE21      29.84R HX  91           
MAJURO WSO     MOCLDY    82  73  74 E10       29.83R                  

$$